Time,TemperatureF,DewpointF,PressureIn,WindDirection,WindDirectionDegrees,WindSpeedMPH,WindSpeedGustMPH,Humidity,HourlyPrecipIn,Conditions,Clouds,dailyrainin,SoftwareType,DateUTC
2013-02-20 00:00:00,36.5,21.0,29.86,North,-999,-999.0,0.0,53,0.00,,---,0.00,VWS V14.01,2013-02-20 05:00:00,
2013-02-20 00:01:00,36.5,21.0,29.86,North,-999,-999.0,0.0,53,0.00,,---,0.00,VWS V14.01,2013-02-20 05:01:00,
2013-02-20 00:05:00,37.1,21.1,29.86,North,-999,-999.0,0.0,52,0.00,,---,0.00,VWS V14.01,2013-02-20 05:05:00,
2013-02-20 00:11:00,38.0,21.5,29.87,North,-999,-999.0,0.0,51,0.00,,---,0.00,VWS V14.01,2013-02-20 05:11:00,
2013-02-20 00:16:00,38.3,21.3,29.87,North,-999,-999.0,0.0,50,0.00,,---,0.00,VWS V14.01,2013-02-20 05:16:00,
2013-02-20 00:21:00,38.2,20.7,29.87,North,-999,-999.0,0.0,49,0.00,,---,0.00,VWS V14.01,2013-02-20 05:21:00,
2013-02-20 00:26:00,38.2,20.7,29.87,North,-999,-999.0,0.0,49,0.00,,---,0.00,VWS V14.01,2013-02-20 05:26:00,
2013-02-20 00:31:00,38.3,20.4,29.87,North,-999,-999.0,0.0,48,0.00,,---,0.00,VWS V14.01,2013-02-20 05:31:00,
2013-02-20 00:36:00,38.3,20.4,29.87,North,-999,-999.0,0.0,48,0.00,,---,0.00,VWS V14.01,2013-02-20 05:36:00,
2013-02-20 00:41:00,38.2,20.2,29.87,North,-999,-999.0,0.0,48,0.00,,---,0.00,VWS V14.01,2013-02-20 05:41:00,
2013-02-20 00:47:00,38.2,19.8,29.88,North,-999,-999.0,0.0,47,0.00,,---,0.00,VWS V14.01,2013-02-20 05:47:00,
2013-02-20 00:52:00,38.0,19.6,29.88,North,-999,-999.0,0.0,47,0.00,,---,0.00,VWS V14.01,2013-02-20 05:52:00,
2013-02-20 00:57:00,37.8,19.4,29.87,North,-999,-999.0,0.0,47,0.00,,---,0.00,VWS V14.01,2013-02-20 05:57:00,
2013-02-20 01:03:00,38.0,19.6,29.87,North,-999,-999.0,0.0,47,0.00,,---,0.00,VWS V14.01,2013-02-20 06:03:00,
2013-02-20 01:08:00,38.0,19.1,29.87,North,-999,-999.0,0.0,46,0.00,,---,0.00,VWS V14.01,2013-02-20 06:08:00,
2013-02-20 01:13:00,38.0,19.1,29.87,North,-999,-999.0,0.0,46,0.00,,---,0.00,VWS V14.01,2013-02-20 06:13:00,
2013-02-20 01:18:00,38.0,19.1,29.87,North,-999,-999.0,0.0,46,0.00,,---,0.00,VWS V14.01,2013-02-20 06:18:00,
2013-02-20 01:23:00,37.6,19.2,29.87,North,-999,-999.0,0.0,47,0.00,,---,0.00,VWS V14.01,2013-02-20 06:23:00,
2013-02-20 01:28:00,36.9,19.1,29.87,North,-999,-999.0,0.0,48,0.00,,---,0.00,VWS V14.01,2013-02-20 06:28:00,
2013-02-20 01:33:00,36.2,18.9,29.87,North,-999,-999.0,0.0,49,0.00,,---,0.00,VWS V14.01,2013-02-20 06:33:00,
2013-02-20 01:38:00,35.3,18.5,29.87,North,-999,-999.0,0.0,50,0.00,,---,0.00,VWS V14.01,2013-02-20 06:38:00,
2013-02-20 01:43:00,34.9,18.6,29.87,North,-999,-999.0,0.0,51,0.00,,---,0.00,VWS V14.01,2013-02-20 06:43:00,
2013-02-20 01:49:00,33.7,18.8,29.87,North,-999,-999.0,0.0,54,0.00,,---,0.00,VWS V14.01,2013-02-20 06:49:00,
2013-02-20 01:54:00,33.1,18.3,29.87,North,-999,-999.0,0.0,54,0.00,,---,0.00,VWS V14.01,2013-02-20 06:54:00,
2013-02-20 01:59:00,32.8,18.8,29.87,North,-999,-999.0,0.0,56,0.00,,---,0.00,VWS V14.01,2013-02-20 06:59:00,
2013-02-20 02:04:00,32.2,18.3,29.87,North,-999,-999.0,0.0,56,0.00,,---,0.00,VWS V14.01,2013-02-20 07:04:00,
2013-02-20 02:10:00,32.0,18.5,29.88,North,-999,-999.0,0.0,57,0.00,,---,0.00,VWS V14.01,2013-02-20 07:10:00,
2013-02-20 02:15:00,31.5,18.4,29.88,North,-999,-999.0,0.0,58,0.00,,---,0.00,VWS V14.01,2013-02-20 07:15:00,
2013-02-20 02:20:00,31.1,18.1,29.88,North,-999,-999.0,0.0,58,0.00,,---,0.00,VWS V14.01,2013-02-20 07:20:00,
2013-02-20 02:25:00,31.0,18.4,29.88,North,-999,-999.0,0.0,59,0.00,,---,0.00,VWS V14.01,2013-02-20 07:25:00,
2013-02-20 02:30:00,30.8,19.0,29.88,North,-999,-999.0,0.0,61,0.00,,---,0.00,VWS V14.01,2013-02-20 07:30:00,
2013-02-20 02:35:00,30.6,18.8,29.88,North,-999,-999.0,0.0,61,0.00,,---,0.00,VWS V14.01,2013-02-20 07:35:00,
2013-02-20 02:40:00,30.2,18.4,29.88,North,-999,-999.0,0.0,61,0.00,,---,0.00,VWS V14.01,2013-02-20 07:40:00,
2013-02-20 02:45:00,30.1,18.7,29.88,North,-999,-999.0,0.0,62,0.00,,---,0.00,VWS V14.01,2013-02-20 07:45:00,
2013-02-20 02:50:00,29.9,18.5,29.88,North,-999,-999.0,0.0,62,0.00,,---,0.00,VWS V14.01,2013-02-20 07:50:00,
2013-02-20 02:55:00,29.7,18.7,29.88,North,-999,-999.0,0.0,63,0.00,,---,0.00,VWS V14.01,2013-02-20 07:55:00,
2013-02-20 03:00:00,29.5,18.5,29.87,North,-999,-999.0,0.0,63,0.00,,---,0.00,VWS V14.01,2013-02-20 08:00:00,
2013-02-20 03:06:00,29.3,19.0,29.88,North,-999,-999.0,0.0,65,0.00,,---,0.00,VWS V14.01,2013-02-20 08:06:00,
2013-02-20 03:11:00,29.2,18.5,29.88,North,-999,-999.0,0.0,64,0.00,,---,0.00,VWS V14.01,2013-02-20 08:11:00,
2013-02-20 03:16:00,28.8,18.5,29.87,North,-999,-999.0,0.0,65,0.00,,---,0.00,VWS V14.01,2013-02-20 08:16:00,
2013-02-20 03:21:00,28.8,18.9,29.87,North,-999,-999.0,0.0,66,0.00,,---,0.00,VWS V14.01,2013-02-20 08:21:00,
2013-02-20 03:26:00,28.6,18.7,29.87,North,-999,-999.0,0.0,66,0.00,,---,0.00,VWS V14.01,2013-02-20 08:26:00,
2013-02-20 03:31:00,28.4,18.5,29.87,North,-999,-999.0,0.0,66,0.00,,---,0.00,VWS V14.01,2013-02-20 08:31:00,
2013-02-20 03:36:00,28.4,18.9,29.88,North,-999,-999.0,0.0,67,0.00,,---,0.00,VWS V14.01,2013-02-20 08:36:00,
2013-02-20 03:41:00,28.3,18.8,29.88,North,-999,-999.0,0.0,67,0.00,,---,0.00,VWS V14.01,2013-02-20 08:41:00,
2013-02-20 03:46:00,28.1,18.6,29.88,North,-999,-999.0,0.0,67,0.00,,---,0.00,VWS V14.01,2013-02-20 08:46:00,
2013-02-20 03:51:00,28.1,18.9,29.87,North,-999,-999.0,0.0,68,0.00,,---,0.00,VWS V14.01,2013-02-20 08:51:00,
2013-02-20 03:56:00,27.9,18.7,29.87,North,-999,-999.0,0.0,68,0.00,,---,0.00,VWS V14.01,2013-02-20 08:56:00,
2013-02-20 04:01:00,27.7,18.5,29.88,North,-999,-999.0,0.0,68,0.00,,---,0.00,VWS V14.01,2013-02-20 09:01:00,
2013-02-20 04:07:00,27.5,18.7,29.88,North,-999,-999.0,0.0,69,0.00,,---,0.00,VWS V14.01,2013-02-20 09:07:00,
2013-02-20 04:12:00,27.4,18.6,29.88,North,-999,-999.0,0.0,69,0.00,,---,0.00,VWS V14.01,2013-02-20 09:12:00,
2013-02-20 04:17:00,27.2,18.4,29.89,North,-999,-999.0,0.0,69,0.00,,---,0.00,VWS V14.01,2013-02-20 09:17:00,
2013-02-20 04:22:00,27.0,18.5,29.88,North,-999,-999.0,0.0,70,0.00,,---,0.00,VWS V14.01,2013-02-20 09:22:00,
2013-02-20 04:27:00,27.0,18.5,29.88,North,-999,-999.0,0.0,70,0.00,,---,0.00,VWS V14.01,2013-02-20 09:27:00,
2013-02-20 04:32:00,26.6,18.1,29.88,North,-999,-999.0,0.0,70,0.00,,---,0.00,VWS V14.01,2013-02-20 09:32:00,
2013-02-20 04:37:00,26.6,18.5,29.88,North,-999,-999.0,0.0,71,0.00,,---,0.00,VWS V14.01,2013-02-20 09:37:00,
2013-02-20 04:42:00,26.5,18.4,29.88,North,-999,-999.0,0.0,71,0.00,,---,0.00,VWS V14.01,2013-02-20 09:42:00,
2013-02-20 04:47:00,26.3,18.5,29.88,North,-999,-999.0,0.0,72,0.00,,---,0.00,VWS V14.01,2013-02-20 09:47:00,
2013-02-20 04:52:00,26.3,18.5,29.88,North,-999,-999.0,0.0,72,0.00,,---,0.00,VWS V14.01,2013-02-20 09:52:00,
2013-02-20 04:57:00,26.1,18.3,29.88,North,-999,-999.0,0.0,72,0.00,,---,0.00,VWS V14.01,2013-02-20 09:57:00,
2013-02-20 05:02:00,26.1,18.3,29.88,North,-999,-999.0,0.0,72,0.00,,---,0.00,VWS V14.01,2013-02-20 10:02:00,
2013-02-20 05:08:00,25.9,18.1,29.89,North,-999,-999.0,0.0,72,0.00,,---,0.00,VWS V14.01,2013-02-20 10:08:00,
2013-02-20 05:13:00,25.7,17.9,29.89,North,-999,-999.0,0.0,72,0.00,,---,0.00,VWS V14.01,2013-02-20 10:13:00,
2013-02-20 05:18:00,25.6,17.8,29.89,North,-999,-999.0,0.0,72,0.00,,---,0.00,VWS V14.01,2013-02-20 10:18:00,
2013-02-20 05:23:00,25.6,18.2,29.89,North,-999,-999.0,0.0,73,0.00,,---,0.00,VWS V14.01,2013-02-20 10:23:00,
2013-02-20 05:28:00,25.6,18.2,29.89,North,-999,-999.0,0.0,73,0.00,,---,0.00,VWS V14.01,2013-02-20 10:28:00,
2013-02-20 05:33:00,25.2,18.1,29.89,North,-999,-999.0,0.0,74,0.00,,---,0.00,VWS V14.01,2013-02-20 10:33:00,
2013-02-20 05:38:00,25.2,17.8,29.89,North,-999,-999.0,0.0,73,0.00,,---,0.00,VWS V14.01,2013-02-20 10:38:00,
2013-02-20 05:43:00,25.2,18.1,29.89,North,-999,-999.0,0.0,74,0.00,,---,0.00,VWS V14.01,2013-02-20 10:43:00,
2013-02-20 05:48:00,25.0,17.9,29.89,North,-999,-999.0,0.0,74,0.00,,---,0.00,VWS V14.01,2013-02-20 10:48:00,
2013-02-20 05:53:00,24.8,17.7,29.89,North,-999,-999.0,0.0,74,0.00,,---,0.00,VWS V14.01,2013-02-20 10:53:00,
2013-02-20 05:58:00,24.7,17.9,29.89,North,-999,-999.0,0.0,75,0.00,,---,0.00,VWS V14.01,2013-02-20 10:58:00,
2013-02-20 06:03:00,24.7,17.9,29.90,North,-999,-999.0,0.0,75,0.00,,---,0.00,VWS V14.01,2013-02-20 11:03:00,
2013-02-20 06:09:00,24.7,17.9,29.89,North,-999,-999.0,0.0,75,0.00,,---,0.00,VWS V14.01,2013-02-20 11:09:00,
2013-02-20 06:14:00,24.5,17.7,29.90,North,-999,-999.0,0.0,75,0.00,,---,0.00,VWS V14.01,2013-02-20 11:14:00,
2013-02-20 06:19:00,24.3,17.5,29.90,North,-999,-999.0,0.0,75,0.00,,---,0.00,VWS V14.01,2013-02-20 11:19:00,
2013-02-20 06:24:00,24.3,17.8,29.90,North,-999,-999.0,0.0,76,0.00,,---,0.00,VWS V14.01,2013-02-20 11:24:00,
2013-02-20 06:29:00,24.1,17.6,29.90,North,-999,-999.0,0.0,76,0.00,,---,0.00,VWS V14.01,2013-02-20 11:29:00,
2013-02-20 06:34:00,24.1,17.6,29.90,North,-999,-999.0,0.0,76,0.00,,---,0.00,VWS V14.01,2013-02-20 11:34:00,
2013-02-20 06:39:00,24.1,17.6,29.90,North,-999,-999.0,0.0,76,0.00,,---,0.00,VWS V14.01,2013-02-20 11:39:00,
2013-02-20 06:44:00,23.9,17.5,29.90,North,-999,-999.0,0.0,76,0.00,,---,0.00,VWS V14.01,2013-02-20 11:44:00,
2013-02-20 06:49:00,23.9,17.8,29.90,North,-999,-999.0,0.0,77,0.00,,---,0.00,VWS V14.01,2013-02-20 11:49:00,
2013-02-20 06:54:00,23.9,17.8,29.90,North,-999,-999.0,0.0,77,0.00,,---,0.00,VWS V14.01,2013-02-20 11:54:00,
2013-02-20 06:59:00,23.8,17.7,29.90,North,-999,-999.0,0.0,77,0.00,,---,0.00,VWS V14.01,2013-02-20 11:59:00,
2013-02-20 07:05:00,23.6,17.5,29.90,North,-999,-999.0,0.0,77,0.00,,---,0.00,VWS V14.01,2013-02-20 12:05:00,
2013-02-20 07:10:00,23.4,17.3,29.91,North,-999,-999.0,0.0,77,0.00,,---,0.00,VWS V14.01,2013-02-20 12:10:00,
2013-02-20 07:15:00,23.4,17.3,29.91,North,-999,-999.0,0.0,77,0.00,,---,0.00,VWS V14.01,2013-02-20 12:15:00,
2013-02-20 07:20:00,23.4,17.3,29.91,North,-999,-999.0,0.0,77,0.00,,---,0.00,VWS V14.01,2013-02-20 12:20:00,
2013-02-20 07:25:00,23.6,17.5,29.91,North,-999,-999.0,0.0,77,0.00,,---,0.00,VWS V14.01,2013-02-20 12:25:00,
2013-02-20 07:30:00,23.4,17.3,29.91,North,-999,-999.0,0.0,77,0.00,,---,0.00,VWS V14.01,2013-02-20 12:30:00,
2013-02-20 07:35:00,23.4,17.3,29.91,North,-999,-999.0,0.0,77,0.00,,---,0.00,VWS V14.01,2013-02-20 12:35:00,
2013-02-20 07:40:00,23.6,17.5,29.91,North,-999,-999.0,0.0,77,0.00,,---,0.00,VWS V14.01,2013-02-20 12:40:00,
2013-02-20 07:45:00,23.6,17.5,29.91,North,-999,-999.0,0.0,77,0.00,,---,0.00,VWS V14.01,2013-02-20 12:45:00,
2013-02-20 07:50:00,23.8,18.0,29.91,North,-999,-999.0,0.0,78,0.00,,---,0.00,VWS V14.01,2013-02-20 12:50:00,
2013-02-20 07:55:00,24.1,18.5,29.92,North,-999,-999.0,0.0,79,0.00,,---,0.00,VWS V14.01,2013-02-20 12:55:00,
2013-02-20 08:01:00,24.7,19.1,29.92,North,-999,-999.0,0.0,79,0.00,,---,0.00,VWS V14.01,2013-02-20 13:01:00,
2013-02-20 08:06:00,25.6,20.0,29.92,North,-999,-999.0,0.0,79,0.00,,---,0.00,VWS V14.01,2013-02-20 13:06:00,
2013-02-20 08:11:00,26.3,20.7,29.92,North,-999,-999.0,0.0,79,0.00,,---,0.00,VWS V14.01,2013-02-20 13:11:00,
2013-02-20 08:16:00,26.6,21.0,29.92,North,-999,-999.0,0.0,79,0.00,,---,0.00,VWS V14.01,2013-02-20 13:16:00,
2013-02-20 08:21:00,26.8,20.9,29.92,North,-999,-999.0,0.0,78,0.00,,---,0.00,VWS V14.01,2013-02-20 13:21:00,
2013-02-20 08:27:00,27.4,21.5,29.92,North,-999,-999.0,0.0,78,0.00,,---,0.00,VWS V14.01,2013-02-20 13:27:00,
2013-02-20 08:32:00,28.1,22.1,29.93,North,-999,-999.0,0.0,78,0.00,,---,0.00,VWS V14.01,2013-02-20 13:32:00,
2013-02-20 08:37:00,28.6,22.3,29.93,North,-999,-999.0,0.0,77,0.00,,---,0.00,VWS V14.01,2013-02-20 13:37:00,
2013-02-20 08:42:00,30.1,24.1,29.93,North,-999,-999.0,0.0,78,0.00,,---,0.00,VWS V14.01,2013-02-20 13:42:00,
2013-02-20 08:47:00,33.1,26.7,29.93,North,-999,-999.0,0.0,77,0.00,,---,0.00,VWS V14.01,2013-02-20 13:47:00,
2013-02-20 08:52:00,36.9,28.0,29.93,North,-999,-999.0,0.0,70,0.00,,---,0.00,VWS V14.01,2013-02-20 13:52:00,
2013-02-20 08:57:00,39.6,28.8,29.94,North,-999,-999.0,0.0,65,0.00,,---,0.00,VWS V14.01,2013-02-20 13:57:00,
2013-02-20 09:03:00,42.3,28.6,29.94,North,-999,-999.0,0.0,58,0.00,,---,0.00,VWS V14.01,2013-02-20 14:03:00,
2013-02-20 09:08:00,43.7,26.8,29.94,North,-999,-999.0,0.0,51,0.00,,---,0.00,VWS V14.01,2013-02-20 14:08:00,
2013-02-20 09:13:00,44.3,24.3,29.94,North,-999,-999.0,0.0,45,0.00,,---,0.00,VWS V14.01,2013-02-20 14:13:00,
2013-02-20 09:18:00,45.0,24.4,29.94,North,-999,-999.0,0.0,44,0.00,,---,0.00,VWS V14.01,2013-02-20 14:18:00,
2013-02-20 09:23:00,45.7,24.5,29.94,North,-999,-999.0,0.0,43,0.00,,---,0.00,VWS V14.01,2013-02-20 14:23:00,
2013-02-20 09:28:00,47.9,26.5,29.94,North,-999,-999.0,0.0,43,0.00,,---,0.00,VWS V14.01,2013-02-20 14:28:00,
2013-02-20 09:33:00,50.0,26.0,29.94,North,-999,-999.0,0.0,39,0.00,,---,0.00,VWS V14.01,2013-02-20 14:33:00,
2013-02-20 09:38:00,50.0,26.6,29.94,North,-999,-999.0,0.0,40,0.00,,---,0.00,VWS V14.01,2013-02-20 14:38:00,
2013-02-20 09:43:00,50.9,27.5,29.94,North,-999,-999.0,0.0,40,0.00,,---,0.00,VWS V14.01,2013-02-20 14:43:00,
2013-02-20 09:48:00,53.3,29.0,29.94,North,-999,-999.0,0.0,39,0.00,,---,0.00,VWS V14.01,2013-02-20 14:48:00,
2013-02-20 09:53:00,54.0,29.6,29.94,North,-999,-999.0,0.0,39,0.00,,---,0.00,VWS V14.01,2013-02-20 14:53:00,
2013-02-20 09:58:00,55.8,27.1,29.94,North,-999,-999.0,0.0,33,0.00,,---,0.00,VWS V14.01,2013-02-20 14:58:00,
2013-02-20 10:03:00,53.6,25.2,29.94,North,-999,-999.0,0.0,33,0.00,,---,0.00,VWS V14.01,2013-02-20 15:03:00,
2013-02-20 10:09:00,53.5,25.1,29.94,North,-999,-999.0,0.0,33,0.00,,---,0.00,VWS V14.01,2013-02-20 15:09:00,
2013-02-20 10:14:00,52.2,22.5,29.95,North,-999,-999.0,0.0,31,0.00,,---,0.00,VWS V14.01,2013-02-20 15:14:00,
2013-02-20 10:19:00,52.7,22.9,29.95,North,-999,-999.0,0.0,31,0.00,,---,0.00,VWS V14.01,2013-02-20 15:19:00,
2013-02-20 10:24:00,51.5,21.1,29.94,North,-999,-999.0,0.0,30,0.00,,---,0.00,VWS V14.01,2013-02-20 15:24:00,
2013-02-20 10:29:00,51.5,22.6,29.94,North,-999,-999.0,0.0,32,0.00,,---,0.00,VWS V14.01,2013-02-20 15:29:00,
2013-02-20 10:34:00,52.9,24.6,29.94,North,-999,-999.0,0.0,33,0.00,,---,0.00,VWS V14.01,2013-02-20 15:34:00,
2013-02-20 10:39:00,55.3,25.2,29.94,North,-999,-999.0,0.0,31,0.00,,---,0.00,VWS V14.01,2013-02-20 15:39:00,
2013-02-20 10:44:00,55.1,21.7,29.93,North,-999,-999.0,0.0,27,0.00,,---,0.00,VWS V14.01,2013-02-20 15:44:00,
2013-02-20 10:49:00,53.1,20.9,29.93,North,-999,-999.0,0.0,28,0.00,,---,0.00,VWS V14.01,2013-02-20 15:49:00,
2013-02-20 10:54:00,53.8,23.9,29.93,North,-999,-999.0,0.0,31,0.00,,---,0.00,VWS V14.01,2013-02-20 15:54:00,
2013-02-20 10:59:00,55.3,24.4,29.93,North,-999,-999.0,0.0,30,0.00,,---,0.00,VWS V14.01,2013-02-20 15:59:00,
2013-02-20 11:05:00,57.6,23.9,29.94,North,-999,-999.0,0.0,27,0.00,,---,0.00,VWS V14.01,2013-02-20 16:05:00,
2013-02-20 11:10:00,59.4,26.3,29.94,North,-999,-999.0,0.0,28,0.00,,---,0.00,VWS V14.01,2013-02-20 16:10:00,
2013-02-20 11:15:00,59.0,26.0,29.94,North,-999,-999.0,0.0,28,0.00,,---,0.00,VWS V14.01,2013-02-20 16:15:00,
2013-02-20 11:20:00,58.3,22.6,29.93,North,-999,-999.0,0.0,25,0.00,,---,0.00,VWS V14.01,2013-02-20 16:20:00,
2013-02-20 11:25:00,59.0,26.0,29.93,North,-999,-999.0,0.0,28,0.00,,---,0.00,VWS V14.01,2013-02-20 16:25:00,
2013-02-20 11:30:00,58.9,25.9,29.93,North,-999,-999.0,0.0,28,0.00,,---,0.00,VWS V14.01,2013-02-20 16:30:00,
2013-02-20 11:35:00,60.8,26.6,29.93,North,-999,-999.0,0.0,27,0.00,,---,0.00,VWS V14.01,2013-02-20 16:35:00,
2013-02-20 11:40:00,60.1,22.2,29.93,North,-999,-999.0,0.0,23,0.00,,---,0.00,VWS V14.01,2013-02-20 16:40:00,
2013-02-20 11:45:00,58.0,21.4,29.93,North,-999,-999.0,0.0,24,0.00,,---,0.00,VWS V14.01,2013-02-20 16:45:00,
2013-02-20 11:50:00,58.9,23.2,29.92,North,-999,-999.0,0.0,25,0.00,,---,0.00,VWS V14.01,2013-02-20 16:50:00,
2013-02-20 11:55:00,62.1,26.8,29.92,North,-999,-999.0,0.0,26,0.00,,---,0.00,VWS V14.01,2013-02-20 16:55:00,
2013-02-20 12:00:00,62.5,24.2,29.92,North,-999,-999.0,0.0,23,0.00,,---,0.00,VWS V14.01,2013-02-20 17:00:00,
2013-02-20 12:06:00,62.3,24.1,29.92,North,-999,-999.0,0.0,23,0.00,,---,0.00,VWS V14.01,2013-02-20 17:06:00,
2013-02-20 12:11:00,60.3,20.2,29.92,North,-999,-999.0,0.0,21,0.00,,---,0.00,VWS V14.01,2013-02-20 17:11:00,
2013-02-20 12:16:00,59.4,20.6,29.91,North,-999,-999.0,0.0,22,0.00,,---,0.00,VWS V14.01,2013-02-20 17:16:00,
2013-02-20 12:21:00,61.7,21.4,29.91,North,-999,-999.0,0.0,21,0.00,,---,0.00,VWS V14.01,2013-02-20 17:21:00,
2013-02-20 12:26:00,64.3,26.8,29.90,North,-999,-999.0,0.0,24,0.00,,---,0.00,VWS V14.01,2013-02-20 17:26:00,
2013-02-20 12:31:00,65.3,24.4,29.90,North,-999,-999.0,0.0,21,0.00,,---,0.00,VWS V14.01,2013-02-20 17:31:00,
2013-02-20 12:36:00,66.2,27.3,29.90,North,-999,-999.0,0.0,23,0.00,,---,0.00,VWS V14.01,2013-02-20 17:36:00,
2013-02-20 12:41:00,68.2,29.0,29.90,North,-999,-999.0,0.0,23,0.00,,---,0.00,VWS V14.01,2013-02-20 17:41:00,
2013-02-20 12:46:00,67.7,27.5,29.90,North,-999,-999.0,0.0,22,0.00,,---,0.00,VWS V14.01,2013-02-20 17:46:00,
2013-02-20 12:51:00,63.0,22.5,29.90,North,-999,-999.0,0.0,21,0.00,,---,0.00,VWS V14.01,2013-02-20 17:51:00,
2013-02-20 12:56:00,61.4,21.1,29.90,North,-999,-999.0,0.0,21,0.00,,---,0.00,VWS V14.01,2013-02-20 17:56:00,
2013-02-20 13:02:00,62.3,24.1,29.89,North,-999,-999.0,0.0,23,0.00,,---,0.00,VWS V14.01,2013-02-20 18:02:00,
2013-02-20 13:07:00,62.1,24.9,29.89,North,-999,-999.0,0.0,24,0.00,,---,0.00,VWS V14.01,2013-02-20 18:07:00,
2013-02-20 13:12:00,62.3,24.1,29.89,North,-999,-999.0,0.0,23,0.00,,---,0.00,VWS V14.01,2013-02-20 18:12:00,
2013-02-20 13:17:00,62.5,23.2,29.88,North,-999,-999.0,0.0,22,0.00,,---,0.00,VWS V14.01,2013-02-20 18:17:00,
2013-02-20 13:22:00,61.6,21.3,29.88,North,-999,-999.0,0.0,21,0.00,,---,0.00,VWS V14.01,2013-02-20 18:22:00,
2013-02-20 13:27:00,63.4,25.0,29.88,North,-999,-999.0,0.0,23,0.00,,---,0.00,VWS V14.01,2013-02-20 18:27:00,
2013-02-20 13:32:00,65.0,24.1,29.88,North,-999,-999.0,0.0,21,0.00,,---,0.00,VWS V14.01,2013-02-20 18:32:00,
2013-02-20 13:37:00,65.9,26.0,29.87,North,-999,-999.0,0.0,22,0.00,,---,0.00,VWS V14.01,2013-02-20 18:37:00,
2013-02-20 13:42:00,65.9,24.9,29.87,North,-999,-999.0,0.0,21,0.00,,---,0.00,VWS V14.01,2013-02-20 18:42:00,
2013-02-20 13:47:00,65.9,26.0,29.87,North,-999,-999.0,0.0,22,0.00,,---,0.00,VWS V14.01,2013-02-20 18:47:00,
2013-02-20 13:52:00,67.9,28.8,29.87,North,-999,-999.0,0.0,23,0.05,,---,0.05,VWS V14.01,2013-02-20 18:52:00,
2013-02-20 13:57:00,70.0,29.4,29.87,North,-999,-999.0,0.0,22,0.05,,---,0.05,VWS V14.01,2013-02-20 18:57:00,
2013-02-20 14:03:00,70.0,28.3,29.86,North,-999,-999.0,0.0,21,0.05,,---,0.05,VWS V14.01,2013-02-20 19:03:00,
2013-02-20 14:08:00,70.2,26.0,29.86,North,-999,-999.0,0.0,19,0.05,,---,0.05,VWS V14.01,2013-02-20 19:08:00,
2013-02-20 14:13:00,70.6,22.3,29.86,North,-999,-999.0,0.0,16,0.05,,---,0.05,VWS V14.01,2013-02-20 19:13:00,
2013-02-20 14:18:00,68.6,23.4,29.86,North,-999,-999.0,0.0,18,0.05,,---,0.05,VWS V14.01,2013-02-20 19:18:00,
2013-02-20 14:23:00,66.4,21.6,29.86,North,-999,-999.0,0.0,18,0.05,,---,0.05,VWS V14.01,2013-02-20 19:23:00,
2013-02-20 14:28:00,65.7,22.3,29.86,North,-999,-999.0,0.0,19,0.05,,---,0.05,VWS V14.01,2013-02-20 19:28:00,
2013-02-20 14:33:00,66.1,22.7,29.86,North,-999,-999.0,0.0,19,0.05,,---,0.05,VWS V14.01,2013-02-20 19:33:00,
2013-02-20 14:38:00,67.3,22.4,29.86,North,-999,-999.0,0.0,18,0.05,,---,0.05,VWS V14.01,2013-02-20 19:38:00,
2013-02-20 14:43:00,65.5,19.6,29.86,North,-999,-999.0,0.0,17,0.05,,---,0.05,VWS V14.01,2013-02-20 19:43:00,
2013-02-20 14:48:00,61.6,16.4,29.85,North,-999,-999.0,0.0,17,0.05,,---,0.05,VWS V14.01,2013-02-20 19:48:00,
2013-02-20 14:53:00,62.1,20.6,29.86,North,-999,-999.0,0.0,20,0.00,,---,0.05,VWS V14.01,2013-02-20 19:53:00,
2013-02-20 14:58:00,63.7,20.7,29.86,North,-999,-999.0,0.0,19,0.00,,---,0.05,VWS V14.01,2013-02-20 19:58:00,
2013-02-20 15:03:00,63.9,20.9,29.86,North,-999,-999.0,0.0,19,0.00,,---,0.05,VWS V14.01,2013-02-20 20:03:00,
2013-02-20 15:09:00,64.8,21.6,29.86,North,-999,-999.0,0.0,19,0.00,,---,0.05,VWS V14.01,2013-02-20 20:09:00,
2013-02-20 15:14:00,65.2,20.7,29.85,North,-999,-999.0,0.0,18,0.00,,---,0.05,VWS V14.01,2013-02-20 20:14:00,
2013-02-20 15:19:00,64.3,19.9,29.85,North,-999,-999.0,0.0,18,0.00,,---,0.05,VWS V14.01,2013-02-20 20:19:00,
2013-02-20 15:24:00,65.0,21.8,29.85,North,-999,-999.0,0.0,19,0.00,,---,0.05,VWS V14.01,2013-02-20 20:24:00,
2013-02-20 15:29:00,65.7,22.3,29.85,North,-999,-999.0,0.0,19,0.00,,---,0.05,VWS V14.01,2013-02-20 20:29:00,
2013-02-20 15:34:00,65.9,22.5,29.85,North,-999,-999.0,0.0,19,0.00,,---,0.05,VWS V14.01,2013-02-20 20:34:00,
2013-02-20 15:39:00,65.9,22.5,29.85,North,-999,-999.0,0.0,19,0.00,,---,0.05,VWS V14.01,2013-02-20 20:39:00,
2013-02-20 15:44:00,66.1,21.4,29.86,North,-999,-999.0,0.0,18,0.00,,---,0.05,VWS V14.01,2013-02-20 20:44:00,
2013-02-20 15:49:00,65.9,21.2,29.86,North,-999,-999.0,0.0,18,0.00,,---,0.05,VWS V14.01,2013-02-20 20:49:00,
2013-02-20 15:54:00,66.6,20.5,29.86,North,-999,-999.0,0.0,17,0.00,,---,0.05,VWS V14.01,2013-02-20 20:54:00,
2013-02-20 15:59:00,64.6,18.8,29.86,North,-999,-999.0,0.0,17,0.00,,---,0.05,VWS V14.01,2013-02-20 20:59:00,
2013-02-20 16:04:00,63.4,19.2,29.85,North,-999,-999.0,0.0,18,0.00,,---,0.05,VWS V14.01,2013-02-20 21:04:00,
2013-02-20 16:10:00,63.0,20.1,29.85,North,-999,-999.0,0.0,19,0.00,,---,0.05,VWS V14.01,2013-02-20 21:10:00,
2013-02-20 16:15:00,62.3,19.5,29.86,North,-999,-999.0,0.0,19,0.00,,---,0.05,VWS V14.01,2013-02-20 21:15:00,
2013-02-20 16:20:00,62.1,21.7,29.86,North,-999,-999.0,0.0,21,0.00,,---,0.05,VWS V14.01,2013-02-20 21:20:00,
2013-02-20 16:25:00,60.8,18.3,29.86,North,-999,-999.0,0.0,19,0.00,,---,0.05,VWS V14.01,2013-02-20 21:25:00,
2013-02-20 16:30:00,59.6,19.6,29.86,North,-999,-999.0,0.0,21,0.00,,---,0.05,VWS V14.01,2013-02-20 21:30:00,
2013-02-20 16:35:00,58.9,17.9,29.86,North,-999,-999.0,0.0,20,0.00,,---,0.05,VWS V14.01,2013-02-20 21:35:00,
2013-02-20 16:40:00,58.3,17.4,29.86,North,-999,-999.0,0.0,20,0.00,,---,0.05,VWS V14.01,2013-02-20 21:40:00,
2013-02-20 16:45:00,58.0,18.3,29.87,North,-999,-999.0,0.0,21,0.00,,---,0.05,VWS V14.01,2013-02-20 21:45:00,
2013-02-20 16:50:00,57.8,17.0,29.87,North,-999,-999.0,0.0,20,0.00,,---,0.05,VWS V14.01,2013-02-20 21:50:00,
2013-02-20 16:55:00,57.2,17.6,29.87,North,-999,-999.0,0.0,21,0.00,,---,0.05,VWS V14.01,2013-02-20 21:55:00,
2013-02-20 17:00:00,56.9,17.4,29.87,North,-999,-999.0,0.0,21,0.00,,---,0.05,VWS V14.01,2013-02-20 22:00:00,
2013-02-20 17:06:00,56.5,17.1,29.87,North,-999,-999.0,0.0,21,0.00,,---,0.05,VWS V14.01,2013-02-20 22:06:00,
2013-02-20 17:11:00,56.2,16.8,29.88,North,-999,-999.0,0.0,21,0.00,,---,0.05,VWS V14.01,2013-02-20 22:11:00,
2013-02-20 17:16:00,55.8,17.5,29.88,North,-999,-999.0,0.0,22,0.00,,---,0.05,VWS V14.01,2013-02-20 22:16:00,
2013-02-20 17:21:00,55.6,17.4,29.88,North,-999,-999.0,0.0,22,0.00,,---,0.05,VWS V14.01,2013-02-20 22:21:00,
2013-02-20 17:26:00,55.6,17.4,29.89,North,-999,-999.0,0.0,22,0.00,,---,0.05,VWS V14.01,2013-02-20 22:26:00,
2013-02-20 17:31:00,55.4,17.2,29.89,North,-999,-999.0,0.0,22,0.00,,---,0.05,VWS V14.01,2013-02-20 22:31:00,
2013-02-20 17:36:00,55.4,18.2,29.89,North,-999,-999.0,0.0,23,0.00,,---,0.05,VWS V14.01,2013-02-20 22:36:00,
2013-02-20 17:41:00,55.1,18.0,29.89,North,-999,-999.0,0.0,23,0.00,,---,0.05,VWS V14.01,2013-02-20 22:41:00,
2013-02-20 17:46:00,55.1,18.0,29.89,North,-999,-999.0,0.0,23,0.00,,---,0.05,VWS V14.01,2013-02-20 22:46:00,
2013-02-20 17:51:00,54.9,18.8,29.89,North,-999,-999.0,0.0,24,0.00,,---,0.05,VWS V14.01,2013-02-20 22:51:00,
2013-02-20 17:56:00,54.7,18.6,29.89,North,-999,-999.0,0.0,24,0.00,,---,0.05,VWS V14.01,2013-02-20 22:56:00,
2013-02-20 18:02:00,54.5,18.5,29.89,North,-999,-999.0,0.0,24,0.00,,---,0.05,VWS V14.01,2013-02-20 23:02:00,
2013-02-20 18:07:00,54.4,19.3,29.89,North,-999,-999.0,0.0,25,0.00,,---,0.05,VWS V14.01,2013-02-20 23:07:00,
2013-02-20 18:12:00,53.8,18.8,29.89,North,-999,-999.0,0.0,25,0.00,,---,0.05,VWS V14.01,2013-02-20 23:12:00,
2013-02-20 18:17:00,53.5,20.4,29.90,North,-999,-999.0,0.0,27,0.00,,---,0.05,VWS V14.01,2013-02-20 23:17:00,
2013-02-20 18:22:00,53.1,20.9,29.89,North,-999,-999.0,0.0,28,0.00,,---,0.05,VWS V14.01,2013-02-20 23:22:00,
2013-02-20 18:27:00,52.6,21.3,29.90,North,-999,-999.0,0.0,29,0.00,,---,0.05,VWS V14.01,2013-02-20 23:27:00,
2013-02-20 18:32:00,52.0,21.5,29.89,North,-999,-999.0,0.0,30,0.00,,---,0.05,VWS V14.01,2013-02-20 23:32:00,
2013-02-20 18:37:00,51.5,22.6,29.89,North,-999,-999.0,0.0,32,0.00,,---,0.05,VWS V14.01,2013-02-20 23:37:00,
2013-02-20 18:42:00,51.3,23.2,29.89,North,-999,-999.0,0.0,33,0.00,,---,0.05,VWS V14.01,2013-02-20 23:42:00,
2013-02-20 18:47:00,50.8,23.5,29.89,North,-999,-999.0,0.0,34,0.00,,---,0.05,VWS V14.01,2013-02-20 23:47:00,
2013-02-20 18:52:00,50.0,23.4,29.88,North,-999,-999.0,0.0,35,0.00,,---,0.05,VWS V14.01,2013-02-20 23:52:00,
2013-02-20 18:57:00,49.7,23.9,29.88,North,-999,-999.0,0.0,36,0.00,,---,0.05,VWS V14.01,2013-02-20 23:57:00,
2013-02-20 19:02:00,49.0,23.9,29.87,North,-999,-999.0,0.0,37,0.00,,---,0.05,VWS V14.01,2013-02-21 00:02:00,
2013-02-20 19:08:00,48.6,24.2,29.87,North,-999,-999.0,0.0,38,0.00,,---,0.05,VWS V14.01,2013-02-21 00:08:00,
2013-02-20 19:13:00,48.2,23.8,29.87,North,-999,-999.0,0.0,38,0.00,,---,0.05,VWS V14.01,2013-02-21 00:13:00,
2013-02-20 19:18:00,47.9,23.5,29.87,North,-999,-999.0,0.0,38,0.00,,---,0.05,VWS V14.01,2013-02-21 00:18:00,
2013-02-20 19:23:00,47.5,23.8,29.87,North,-999,-999.0,0.0,39,0.00,,---,0.05,VWS V14.01,2013-02-21 00:23:00,
2013-02-20 19:28:00,47.2,23.5,29.87,North,-999,-999.0,0.0,39,0.00,,---,0.05,VWS V14.01,2013-02-21 00:28:00,
2013-02-20 19:33:00,46.8,24.4,29.88,North,-999,-999.0,0.0,41,0.00,,---,0.05,VWS V14.01,2013-02-21 00:33:00,
2013-02-20 19:38:00,46.4,24.6,29.88,North,-999,-999.0,0.0,42,0.00,,---,0.05,VWS V14.01,2013-02-21 00:38:00,
2013-02-20 19:43:00,45.9,24.1,29.89,North,-999,-999.0,0.0,42,0.00,,---,0.05,VWS V14.01,2013-02-21 00:43:00,
2013-02-20 19:48:00,45.5,24.3,29.88,North,-999,-999.0,0.0,43,0.00,,---,0.05,VWS V14.01,2013-02-21 00:48:00,
2013-02-20 19:53:00,45.4,24.2,29.88,North,-999,-999.0,0.0,43,0.00,,---,0.05,VWS V14.01,2013-02-21 00:53:00,
2013-02-20 19:58:00,45.0,25.0,29.88,North,-999,-999.0,0.0,45,0.00,,---,0.05,VWS V14.01,2013-02-21 00:58:00,
2013-02-20 20:03:00,44.6,24.6,29.88,North,-999,-999.0,0.0,45,0.00,,---,0.05,VWS V14.01,2013-02-21 01:03:00,
2013-02-20 20:09:00,44.3,24.8,29.88,North,-999,-999.0,0.0,46,0.00,,---,0.05,VWS V14.01,2013-02-21 01:09:00,
2013-02-20 20:14:00,43.9,24.5,29.88,North,-999,-999.0,0.0,46,0.00,,---,0.05,VWS V14.01,2013-02-21 01:14:00,
2013-02-20 20:19:00,43.4,24.5,29.88,North,-999,-999.0,0.0,47,0.00,,---,0.05,VWS V14.01,2013-02-21 01:19:00,
2013-02-20 20:24:00,42.8,24.5,29.88,North,-999,-999.0,0.0,48,0.00,,---,0.05,VWS V14.01,2013-02-21 01:24:00,
2013-02-20 20:29:00,42.3,24.5,29.88,North,-999,-999.0,0.0,49,0.00,,---,0.05,VWS V14.01,2013-02-21 01:29:00,
2013-02-20 20:34:00,41.8,24.5,29.88,North,-999,-999.0,0.0,50,0.00,,---,0.05,VWS V14.01,2013-02-21 01:34:00,
2013-02-20 20:39:00,41.2,24.0,29.88,North,-999,-999.0,0.0,50,0.00,,---,0.05,VWS V14.01,2013-02-21 01:39:00,
2013-02-20 20:44:00,40.9,23.7,29.88,North,-999,-999.0,0.0,50,0.00,,---,0.05,VWS V14.01,2013-02-21 01:44:00,
2013-02-20 20:49:00,40.5,23.8,29.88,North,-999,-999.0,0.0,51,0.00,,---,0.05,VWS V14.01,2013-02-21 01:49:00,
2013-02-20 20:54:00,40.1,23.4,29.89,North,-999,-999.0,0.0,51,0.00,,---,0.05,VWS V14.01,2013-02-21 01:54:00,
2013-02-20 20:59:00,40.0,23.8,29.88,North,-999,-999.0,0.0,52,0.00,,---,0.05,VWS V14.01,2013-02-21 01:59:00,
2013-02-20 21:05:00,39.6,23.9,29.88,North,-999,-999.0,0.0,53,0.00,,---,0.05,VWS V14.01,2013-02-21 02:05:00,
2013-02-20 21:10:00,39.2,23.5,29.89,North,-999,-999.0,0.0,53,0.00,,---,0.05,VWS V14.01,2013-02-21 02:10:00,
2013-02-20 21:15:00,38.7,23.5,29.89,North,-999,-999.0,0.0,54,0.00,,---,0.05,VWS V14.01,2013-02-21 02:15:00,
2013-02-20 21:20:00,38.2,23.9,29.89,North,-999,-999.0,0.0,56,0.00,,---,0.05,VWS V14.01,2013-02-21 02:20:00,
2013-02-20 21:25:00,38.0,23.7,29.89,North,-999,-999.0,0.0,56,0.00,,---,0.05,VWS V14.01,2013-02-21 02:25:00,
2013-02-20 21:30:00,37.8,24.0,29.89,North,-999,-999.0,0.0,57,0.00,,---,0.05,VWS V14.01,2013-02-21 02:30:00,
2013-02-20 21:35:00,37.4,23.6,29.89,North,-999,-999.0,0.0,57,0.00,,---,0.05,VWS V14.01,2013-02-21 02:35:00,
2013-02-20 21:40:00,37.1,23.7,29.89,North,-999,-999.0,0.0,58,0.00,,---,0.05,VWS V14.01,2013-02-21 02:40:00,
2013-02-20 21:45:00,36.7,23.3,29.89,North,-999,-999.0,0.0,58,0.00,,---,0.05,VWS V14.01,2013-02-21 02:45:00,
2013-02-20 21:50:00,36.4,23.0,29.90,North,-999,-999.0,0.0,58,0.00,,---,0.05,VWS V14.01,2013-02-21 02:50:00,
2013-02-20 21:55:00,36.2,23.3,29.89,North,-999,-999.0,0.0,59,0.00,,---,0.05,VWS V14.01,2013-02-21 02:55:00,
2013-02-20 22:01:00,35.8,23.3,29.90,North,-999,-999.0,0.0,60,0.00,,---,0.05,VWS V14.01,2013-02-21 03:01:00,
2013-02-20 22:06:00,35.5,23.0,29.90,North,-999,-999.0,0.0,60,0.00,,---,0.05,VWS V14.01,2013-02-21 03:06:00,
2013-02-20 22:11:00,35.3,23.2,29.90,North,-999,-999.0,0.0,61,0.00,,---,0.05,VWS V14.01,2013-02-21 03:11:00,
2013-02-20 22:16:00,34.9,22.8,29.90,North,-999,-999.0,0.0,61,0.00,,---,0.05,VWS V14.01,2013-02-21 03:16:00,
2013-02-20 22:21:00,34.7,23.0,29.89,North,-999,-999.0,0.0,62,0.00,,---,0.05,VWS V14.01,2013-02-21 03:21:00,
2013-02-20 22:26:00,34.4,22.7,29.89,North,-999,-999.0,0.0,62,0.00,,---,0.05,VWS V14.01,2013-02-21 03:26:00,
2013-02-20 22:31:00,34.4,22.7,29.90,North,-999,-999.0,0.0,62,0.00,,---,0.05,VWS V14.01,2013-02-21 03:31:00,
2013-02-20 22:36:00,34.2,22.5,29.90,North,-999,-999.0,0.0,62,0.00,,---,0.05,VWS V14.01,2013-02-21 03:36:00,
2013-02-20 22:41:00,34.0,22.4,29.90,North,-999,-999.0,0.0,62,0.00,,---,0.05,VWS V14.01,2013-02-21 03:41:00,
2013-02-20 22:46:00,33.8,22.2,29.90,North,-999,-999.0,0.0,62,0.00,,---,0.05,VWS V14.01,2013-02-21 03:46:00,
2013-02-20 22:51:00,33.5,22.3,29.90,North,-999,-999.0,0.0,63,0.00,,---,0.05,VWS V14.01,2013-02-21 03:51:00,
2013-02-20 22:56:00,33.3,22.1,29.90,North,-999,-999.0,0.0,63,0.00,,---,0.05,VWS V14.01,2013-02-21 03:56:00,
2013-02-20 23:01:00,33.1,22.3,29.90,North,-999,-999.0,0.0,64,0.00,,---,0.05,VWS V14.01,2013-02-21 04:01:00,
2013-02-20 23:07:00,32.8,22.0,29.90,North,-999,-999.0,0.0,64,0.00,,---,0.05,VWS V14.01,2013-02-21 04:07:00,
2013-02-20 23:12:00,32.8,22.0,29.91,North,-999,-999.0,0.0,64,0.00,,---,0.05,VWS V14.01,2013-02-21 04:12:00,
2013-02-20 23:18:00,32.4,21.6,29.90,North,-999,-999.0,0.0,64,0.00,,---,0.05,VWS V14.01,2013-02-21 04:18:00,
2013-02-20 23:23:00,32.2,21.8,29.91,North,-999,-999.0,0.0,65,0.00,,---,0.05,VWS V14.01,2013-02-21 04:23:00,
2013-02-20 23:28:00,32.0,21.6,29.91,North,-999,-999.0,0.0,65,0.00,,---,0.05,VWS V14.01,2013-02-21 04:28:00,
2013-02-20 23:33:00,32.0,21.6,29.91,North,-999,-999.0,0.0,65,0.00,,---,0.05,VWS V14.01,2013-02-21 04:33:00,
2013-02-20 23:38:00,31.7,21.7,29.91,North,-999,-999.0,0.0,66,0.00,,---,0.05,VWS V14.01,2013-02-21 04:38:00,
2013-02-20 23:43:00,31.5,21.5,29.91,North,-999,-999.0,0.0,66,0.00,,---,0.05,VWS V14.01,2013-02-21 04:43:00,
2013-02-20 23:48:00,31.3,21.3,29.91,North,-999,-999.0,0.0,66,0.00,,---,0.05,VWS V14.01,2013-02-21 04:48:00,
2013-02-20 23:53:00,31.3,21.3,29.92,North,-999,-999.0,0.0,66,0.00,,---,0.05,VWS V14.01,2013-02-21 04:53:00,
2013-02-20 23:58:00,31.1,21.1,29.91,North,-999,-999.0,0.0,66,0.00,,---,0.05,VWS V14.01,2013-02-21 04:58:00,